When you browse on this site, cookies collect data to enhance your experience and personalize the content and advertising you see.
Visit our Privacy Policy to learn more. By continuing to use the site, you agree to this use of cookies and data.
  • In Italy
  • List of Countries
  • For 7 days
  • Water Temperature
  • Satellite Maps
  • Weather Map
  • Weather Widgets
  • user-avatar
    Login

    Hourly Weather Biskira

    Today, 18 June, Tuesday

    Time Temperature Precipitation Wind Pressure Humidity
    00:00 +32°C° 0 mm 1 mps 751 mmHg 32%
    01:00 +31°C° 0 mm 1 mps 751 mmHg 33%
    02:00 +31°C° 0 mm 1 mps 751 mmHg 34%
    03:00 +30°C° 0 mm 1 mps 751 mmHg 35%
    04:00 +31°C° 0 mm 1 mps 751 mmHg 34%
    05:00 +31°C° 0 mm 1 mps 751 mmHg 33%
    06:00 +31°C° 0 mm 1 mps 752 mmHg 32%
    07:00 +32°C° 0 mm 1 mps 752 mmHg 29%
    08:00 +35°C° 0 mm 2 mps 752 mmHg 27%
    09:00 +36°C° 0 mm 2 mps 752 mmHg 25%
    10:00 +37°C° 0 mm 2 mps 752 mmHg 23%
    11:00 +38°C° 0 mm 2 mps 751 mmHg 21%
    12:00 +39°C° 0 mm 3 mps 751 mmHg 19%
    13:00 +40°C° 0 mm 3 mps 751 mmHg 17%
    14:00 +40°C° 0 mm 3 mps 750 mmHg 16%
    15:00 +42°C° 0 mm 4 mps 750 mmHg 15%
    16:00 +42°C° 0 mm 4 mps 750 mmHg 15%
    17:00 +42°C° 0 mm 4 mps 750 mmHg 15%
    18:00 +41°C° 0 mm 4 mps 750 mmHg 15%
    19:00 +40°C° 0 mm 4 mps 750 mmHg 16%
    20:00 +38°C° 0 mm 4 mps 751 mmHg 18%
    21:00 +37°C° 0 mm 4 mps 751 mmHg 19%
    22:00 +36°C° 0 mm 3 mps 751 mmHg 20%
    23:00 +36°C° 0 mm 3 mps 751 mmHg 21%

    Tomorrow, 19 June, Wednesday

    Time Temperature Precipitation Wind Pressure Humidity
    00:00 +35°C° 0 mm 3 mps 751 mmHg 22%
    01:00 +34°C° 0 mm 4 mps 751 mmHg 23%
    02:00 +33°C° 0 mm 5 mps 751 mmHg 24%
    03:00 +32°C° 0 mm 6 mps 751 mmHg 26%
    04:00 +32°C° 0 mm 5 mps 751 mmHg 25%
    05:00 +32°C° 0 mm 5 mps 752 mmHg 25%
    06:00 +33°C° 0 mm 4 mps 752 mmHg 24%
    07:00 +34°C° 0 mm 4 mps 752 mmHg 23%
    08:00 +35°C° 0 mm 4 mps 752 mmHg 21%
    09:00 +36°C° 0 mm 3 mps 752 mmHg 20%
    10:00 +38°C° 0 mm 3 mps 752 mmHg 19%
    11:00 +39°C° 0 mm 3 mps 752 mmHg 18%
    12:00 +40°C° 0 mm 3 mps 751 mmHg 17%
    13:00 +41°C° 0 mm 2 mps 751 mmHg 16%
    14:00 +41°C° 0 mm 2 mps 750 mmHg 15%
    15:00 +42°C° 0 mm 2 mps 750 mmHg 14%
    16:00 +42°C° 0 mm 2 mps 750 mmHg 14%
    17:00 +43°C° 0 mm 3 mps 750 mmHg 14%
    18:00 +43°C° 0 mm 3 mps 750 mmHg 14%
    19:00 +42°C° 0 mm 3 mps 750 mmHg 15%
    20:00 +40°C° 0 mm 2 mps 750 mmHg 17%
    21:00 +39°C° 0 mm 2 mps 751 mmHg 18%
    22:00 +38°C° 0 mm 2 mps 751 mmHg 18%
    23:00 +38°C° 0 mm 2 mps 751 mmHg 19%

    Day after tomorrow, 20 June, Thursday

    Time Temperature Precipitation Wind Pressure Humidity
    00:00 +37°C° 0 mm 2 mps 751 mmHg 19%
    01:00 +37°C° 0 mm 2 mps 750 mmHg 20%
    02:00 +36°C° 0 mm 2 mps 750 mmHg 20%
    03:00 +35°C° 0 mm 3 mps 750 mmHg 21%
    04:00 +36°C° 0 mm 3 mps 750 mmHg 20%
    05:00 +36°C° 0 mm 3 mps 750 mmHg 20%
    06:00 +36°C° 0 mm 3 mps 750 mmHg 20%
    07:00 +38°C° 0 mm 3 mps 750 mmHg 18%
    08:00 +40°C° 0 mm 4 mps 751 mmHg 16%
    09:00 +42°C° 0 mm 4 mps 751 mmHg 14%
    10:00 +43°C° 0 mm 4 mps 750 mmHg 13%
    11:00 +45°C° 0 mm 5 mps 750 mmHg 12%
    12:00 +46°C° 0 mm 5 mps 750 mmHg 11%
    13:00 +46°C° 0 mm 5 mps 750 mmHg 10%
    14:00 +47°C° 0 mm 5 mps 749 mmHg 10%
    15:00 +47°C° 0 mm 5 mps 749 mmHg 9%
    16:00 +47°C° 0 mm 5 mps 749 mmHg 9%
    17:00 +47°C° 0 mm 5 mps 749 mmHg 9%
    18:00 +46°C° 0 mm 5 mps 749 mmHg 9%
    19:00 +45°C° 0 mm 5 mps 749 mmHg 10%
    20:00 +43°C° 0 mm 5 mps 749 mmHg 10%
    21:00 +41°C° 0 mm 5 mps 750 mmHg 11%
    22:00 +40°C° 0 mm 5 mps 750 mmHg 13%
    23:00 +40°C° 0 mm 6 mps 750 mmHg 14%

    21 June, Friday

    Time Temperature Precipitation Wind Pressure Humidity
    00:00 +39°C° 0 mm 6 mps 750 mmHg 16%
    01:00 +38°C° 0 mm 6 mps 750 mmHg 19%
    02:00 +36°C° 0 mm 7 mps 749 mmHg 22%
    03:00 +35°C° 0 mm 7 mps 749 mmHg 26%
    04:00 +36°C° 0 mm 7 mps 750 mmHg 24%
    05:00 +37°C° 0 mm 8 mps 750 mmHg 23%
    06:00 +38°C° 0 mm 8 mps 750 mmHg 22%
    07:00 +39°C° 0 mm 8 mps 750 mmHg 20%
    08:00 +40°C° 0 mm 8 mps 750 mmHg 18%
    09:00 +43°C° 0 mm 9 mps 750 mmHg 16%
    10:00 +44°C° 0 mm 8 mps 750 mmHg 14%
    11:00 +46°C° 0 mm 7 mps 750 mmHg 12%
    12:00 +47°C° 0 mm 6 mps 750 mmHg 9%
    13:00 +48°C° 0 mm 6 mps 749 mmHg 8%
    14:00 +49°C° 0 mm 6 mps 749 mmHg 7%
    15:00 +49°C° 0 mm 5 mps 748 mmHg 6%
    16:00 +49°C° 0 mm 6 mps 748 mmHg 7%
    17:00 +48°C° 0 mm 6 mps 748 mmHg 7%
    18:00 +49°C° 0 mm 7 mps 748 mmHg 7%
    19:00 +46°C° 0 mm 6 mps 748 mmHg 8%
    20:00 +45°C° 0 mm 5 mps 748 mmHg 9%
    21:00 +42°C° 0 mm 5 mps 749 mmHg 10%
    22:00 +41°C° 0 mm 5 mps 749 mmHg 11%
    23:00 +40°C° 0 mm 4 mps 749 mmHg 11%

    22 June, Saturday

    Time Temperature Precipitation Wind Pressure Humidity
    00:00 +38°C° 0 mm 4 mps 749 mmHg 11%
    01:00 +39°C° 0 mm 5 mps 749 mmHg 14%
    02:00 +38°C° 0 mm 7 mps 749 mmHg 17%
    03:00 +38°C° 0 mm 8 mps 748 mmHg 19%
    04:00 +38°C° 0 mm 8 mps 749 mmHg 19%
    05:00 +38°C° 0 mm 8 mps 750 mmHg 19%
    06:00 +39°C° 0 mm 8 mps 750 mmHg 18%
    07:00 +40°C° 0 mm 8 mps 750 mmHg 17%
    08:00 +41°C° 0 mm 8 mps 750 mmHg 15%
    09:00 +43°C° 0 mm 8 mps 750 mmHg 13%
    10:00 +45°C° 0 mm 7 mps 750 mmHg 12%
    11:00 +46°C° 0 mm 7 mps 750 mmHg 10%
    12:00 +48°C° 0 mm 6 mps 750 mmHg 9%
    13:00 +49°C° 0 mm 6 mps 749 mmHg 8%
    14:00 +50°C° 0 mm 7 mps 749 mmHg 7%
    15:00 +51°C° 0 mm 7 mps 748 mmHg 6%
    16:00 +50°C° 0 mm 7 mps 748 mmHg 7%
    17:00 +50°C° 0 mm 7 mps 748 mmHg 7%
    18:00 +48°C° 0 mm 6 mps 748 mmHg 7%
    19:00 +46°C° 0 mm 6 mps 749 mmHg 8%
    20:00 +45°C° 0 mm 6 mps 749 mmHg 9%
    21:00 +42°C° 0 mm 6 mps 750 mmHg 10%
    22:00 +42°C° 0 mm 6 mps 750 mmHg 11%
    23:00 +41°C° 0 mm 6 mps 750 mmHg 11%

    23 June, Sunday

    Time Temperature Precipitation Wind Pressure Humidity
    00:00 +40°C° 0 mm 5 mps 750 mmHg 12%
    01:00 +39°C° 0 mm 6 mps 750 mmHg 14%
    02:00 +39°C° 0 mm 6 mps 750 mmHg 15%
    03:00 +38°C° 0 mm 7 mps 750 mmHg 17%
    04:00 +38°C° 0 mm 7 mps 750 mmHg 17%
    05:00 +38°C° 0 mm 7 mps 751 mmHg 16%
    06:00 +39°C° 0 mm 8 mps 751 mmHg 16%
    07:00 +40°C° 0 mm 8 mps 751 mmHg 14%
    08:00 +41°C° 0 mm 8 mps 752 mmHg 13%
    09:00 +43°C° 0 mm 8 mps 752 mmHg 11%
    10:00 +45°C° 0 mm 8 mps 752 mmHg 10%
    11:00 +46°C° 0 mm 7 mps 752 mmHg 8%
    12:00 +49°C° 0 mm 7 mps 751 mmHg 7%
    13:00 +49°C° 0 mm 7 mps 751 mmHg 7%
    14:00 +50°C° 0 mm 7 mps 751 mmHg 7%
    15:00 +50°C° 0 mm 7 mps 750 mmHg 7%
    16:00 +49°C° 0 mm 7 mps 750 mmHg 7%
    17:00 +49°C° 0 mm 7 mps 750 mmHg 7%
    18:00 +47°C° 0 mm 6 mps 751 mmHg 8%
    19:00 +46°C° 0 mm 6 mps 751 mmHg 9%
    20:00 +43°C° 0 mm 5 mps 752 mmHg 9%
    21:00 +42°C° 0 mm 4 mps 752 mmHg 10%
    22:00 +41°C° 0 mm 4 mps 752 mmHg 11%
    23:00 +40°C° 0 mm 5 mps 752 mmHg 11%
    Show more